Regional Weather Roundup
Issued by NWS

Home | Current Version | Previous Version | Graphics & Text | Print | Product List | Glossary On
Versions: 1 2 3 4 5 6 7 8 9 10 11 12 13 14 15 16 17 18 19 20 21 22 23 24 25 26 27 28 29 30 31 32 33 34 35 36 37 38 39 40 41 42 43 44 45 46 47 48 49 50
000
ASUS43 KMPX 051901
RWRMN
WEATHER ROUNDUP FOR MINNESOTA
NATIONAL WEATHER SERVICE TWIN CITIES/CHANHASSEN MN
200 PM CDT TUE MAY 05 2015


NOTE: "FAIR" INDICATES FEW OR NO CLOUDS BELOW 12,000 FEET WITH NO
SIGNIFICANT WEATHER AND/OR OBSTRUCTIONS TO VISIBILITY. N/A MEANS
CURRENT SKY AND/OR WEATHER CONDITIONS ARE NOT AVAILABLE.

MNZ060>063-068>070-052000-
   Twin Cities Metro

CITY           SKY/WX    TMP DP  RH WIND       PRES   REMARKS
TWIN CITIES    PTSUNNY   69  45  41 E16       30.17S
ST PAUL        PTSUNNY   70  46  42 SE20      30.17F
CRYSTAL        MOSUNNY   72  43  35 SE16      30.15F
LAKEVILLE      CLOUDY    63  50  63 SE12      30.18R
EDEN PRAIRIE   CLOUDY    67  49  52 SE18G32   30.16S
SOUTH ST PAUL  MOSUNNY   69  41  35 SE14G23   30.18R
LAKE ELMO      FAIR      70  45  40 S14G20    30.19S
$$
MNZ001>005-007-008-013>017-022>024-027-028-052000-
   Northwest Minnesota

CITY           SKY/WX    TMP DP  RH WIND       PRES   REMARKS
BEMIDJI        SUNNY     71  24  17 SE14      30.14F
HALLOCK        SUNNY     75   1   5 SE17G24   30.06F
ROSEAU         SUNNY     73  16  11 S15       30.11F
WARROAD        SUNNY     72  32  23 S14       30.12F
THIEF RVR FALL SUNNY     72  21  15 S14G22    30.11F
CROOKSTON      SUNNY     73  21  14 S15G24    30.08F
FOSSTON        SUNNY     73  18  12 SE9G16    30.11F
DETROIT LAKES  SUNNY     72  27  18 SE15G26   30.12F
MOORHEAD       SUNNY     75  21  13 SE18G25   30.08F
PARK RAPIDS    SUNNY     74  24  15 SE20G30   30.13F
MAHNOMEN       FAIR      71  23  16 SE13G21   30.10F
$$
MNZ006-009>011-018-025>026-052000-
   North Central Minnesota

CITY           SKY/WX    TMP DP  RH WIND       PRES   REMARKS
BAUDETTE       SUNNY     72  24  16 S14G23    30.13F
FLAG ISLAND    SUNNY     64  32  29 CALM      30.13F
INTL FALLS     SUNNY     72  22  15 SE16      30.16F
WASKISH        SUNNY     73  28  19 SE12G17   30.14F
BIG FORK       SUNNY     73  25  16 SW9G18    30.17F
LONGVILLE      SUNNY     72  25  17 SE6       30.15F
GRAND RAPIDS   SUNNY     70  25  18 S13G22    30.18F
CRANE LAKE     SUNNY     70  16  12 S10       30.20F
COOK           SUNNY     72  25  17 S10G20    30.19F
WALKER         FAIR      69  28  21 SE9G16    30.15F
$$
MNZ012-019>021-037-052000-
   Northeast Minnesota

CITY           SKY/WX    TMP DP  RH WIND       PRES   REMARKS
DULUTH         SUNNY     68  27  21 SE9       30.21F
ELY            SUNNY     70  18  13 SE9G18    30.21F
HIBBING        SUNNY     71  19  14 S14G22    30.19F
EVELETH        SUNNY     70  21  16 SE17      30.21F
DULUTH HARBOR    N/A     46  36  66 CALM      30.23F
TWO HARBORS    SUNNY     72  37  28 E10       30.21F
SILVER BAY     SUNNY     68  27  21 E10       30.23F
GRAND MARAIS     N/A     54  30  40 E3        30.27F
G MARAIS ARPRT SUNNY     63  21  20 SE8       30.28F
$$
MNZ029>031-032-039>041-046>048-054>057-064-052000-
   West Central Minnesota

CITY           SKY/WX    TMP DP  RH WIND       PRES   REMARKS
FERGUS FALLS   SUNNY     73  34  23 SE16G24   30.09F
WHEATON        SUNNY     75  37  25 SE18G28   30.07F
MORRIS         MOSUNNY   79  43  27 SE24G31   30.06F
ALEXANDRIA     SUNNY     73  40  30 SE14G24   30.12F
ELBOW LAKE     FAIR      72  38  28 SE16      30.09F
WADENA         SUNNY     72  36  26 SE16      30.12F
GLENWOOD       SUNNY     73  43  33 SE16G25   30.12F
APPLETON       MOSUNNY   73  48  40 SE15      30.07S
BENSON         CLOUDY    73  46  38 SE14      30.09S
ORTONVILLE     MOSUNNY   75  43  31 SE20G26   30.05F
MADISON        PTSUNNY   73  48  40 SE21      30.07S
WILLMAR        FAIR      73  48  40 SE22G29   30.11F
$$
MNZ033>034-036-042>043-049>051-058-059-052000-
   Central Minnesota

CITY           SKY/WX    TMP DP  RH WIND       PRES   REMARKS
ST CLOUD       SUNNY     72  44  36 SE15G26   30.14F
SAUK CENTRE    FAIR      73  47  39 SE21G29   30.12F
PAYNESVILLE    MOSUNNY   70  46  43 E18       30.13F
AITKIN         SUNNY     73  19  13 S10G17    30.15F
PINE RIVER     SUNNY     70  39  32 SE14G20   30.18F
BRAINERD       SUNNY     70  33  25 SE10G17   30.15F
STAPLES        SUNNY     70  32  24 SE10G20   30.13F
LONG PRAIRIE   FAIR      70  41  35 SE14G24   30.14F
LITTLE FALLS   SUNNY     72  37  28 E14       30.14F
LITCHFIELD     PTSUNNY   72  48  43 E20       30.13F
BUFFALO        MOSUNNY   71  43  36 SE14G20   30.16S
MAPLE LAKE     SUNNY     73  48  40 SE12G21   30.16S
$$
MNZ037-044-045-052-053-052000-
   East Central Minnesota

CITY           SKY/WX    TMP DP  RH WIND       PRES   REMARKS
PRINCETON      SUNNY     73  39  29 E14G21    30.16F
MORA           SUNNY     70  36  28 S13G22    30.19F
CAMBRIDGE      SUNNY     73  48  40 SE10G18   30.15F
RUSH CITY      SUNNY     72  37  27 S15       30.18F
MOOSE LAKE     SUNNY     72  32  23 S10       30.16F
HINCKLEY       FAIR      72  34  25 SE12G17   30.18F
CLOQUET        SUNNY     70  27  19 E12G20    30.19F
MCGREGOR       SUNNY     72  30  21 SE17      30.18F
$$
MNZ071>073-080-081-089-090-097-098-052000-
   Southwest Minnesota

CITY           SKY/WX    TMP DP  RH WIND       PRES   REMARKS
MONTEVIDEO     PTSUNNY   73  48  40 S24G36    30.09S
GRANITE FALLS  PTSUNNY   70  51  50 SE16G26   30.11S
CANBY          CLOUDY    68  51  53 SE16G22   30.08F
MARSHALL       PTSUNNY   64  48  55 SE17      30.09F
REDWOOD FALLS  CLOUDY    65  53  65 SE17      30.12S
OLIVIA         PTSUNNY   68  52  56 SE20G25   30.12R
WORTHINGTON    CLOUDY    59  54  82 SE17      30.10F
JACKSON        CLOUDY    59  55  88 E15       30.13S FOG
TRACY          CLOUDY    66  55  68 E15       30.10F
SLAYTON        LGT RAIN  60  59  96 E13       30.11S
$$
MNZ065>067-074>077-082>085-091>093-052000-
   South Central Minnesota

CITY           SKY/WX    TMP DP  RH WIND       PRES   REMARKS
MANKATO        CLOUDY    59  52  77 SE17G25   30.17R
NEW ULM        CLOUDY    61  52  72 SE16      30.14F
ST JAMES       CLOUDY    61  54  77 E14       30.15S
FAIRMONT       CLOUDY    57  50  77 E14       30.13F
GLENCOE        CLOUDY    64  54  68 SE17      30.15S
FARIBAULT      CLOUDY    61  52  72 E15G24    30.18F
OWATONNA       PTSUNNY   61  52  72 SE21G26   30.17F
WASECA         CLOUDY    55  50  82 E18       30.18S
ALBERT LEA     RAIN      54  54 100 E15       30.17S
$$
MNZ078>079-086>088-094>096-052000-
   Southeast Minnesota

CITY           SKY/WX    TMP DP  RH WIND       PRES   REMARKS
ROCHESTER      CLOUDY    56  51  84 SE18G26   30.21S
RED WING       PTSUNNY   66  43  42 SE18G24   30.19R
STANTON        CLOUDY    63  49  60 SE17G23   30.17F
DODGE CENTER   CLOUDY    61  52  72 SE22      30.19S
WINONA         CLOUDY    59  48  67 E15       30.23S
AUSTIN         CLOUDY    54  52  94 SE17      30.18S
PRESTON        CLOUDY    51  49  91 E12G18    30.21F
$$
ABBREVIATIONS USED IN REMARKS
   TC - TEMPERATURES IN CELSIUS
  WCI - WIND CHILL INDEX
   HX - HEAT INDEX
  VSB - VISIBILITY
$$



USA.gov is the U.S. government's official web portal to all federal, state and local government web resources and services.